Overview Statistics Trail Chart Weather Telemetry Raw packets
 

This is the latest recevied weather packets stored in our database for station/object KJ6HT. If no packets are shown the sender has not sent any weather packets the latest 10 day(s).

<< 14 15 16 17 18 19 20 >>
Time Temp. Humidity Pressure Rain* Wind** Luminosity Snow
1788291077 30.56° C 37% 1013.3 hPa 0 mm - - -
1788290128 30° C 41% 1013.6 hPa 0 mm - - -
1788289279 28.89° C 42% 1013.7 hPa 0 mm - - -
1788288343 28.33° C 41% 1013.9 hPa 0 mm - - -
1788287429 27.22° C 46% 1013.9 hPa 0 mm - - -
1788286585 27.22° C 47% 1013.9 hPa 0 mm - - -
1788285645 27.78° C 53% 1014 hPa 0 mm - - -
1788284702 26.67° C 57% 1014.1 hPa 0 mm - - -
1788283879 25.56° C 59% 1014 hPa 0 mm - - -
1788282942 24.44° C 63% 1014 hPa 0 mm - - -
1788282082 25° C 64% 1014.1 hPa 0 mm - - -
1788281121 23.89° C 68% 1014 hPa 0 mm - - -
1788280277 22.22° C 75% 1013.9 hPa 0 mm - - -
1788279334 21.67° C 77% 1013.9 hPa 0 mm - - -
1788278472 21.11° C 78% 1013.9 hPa 0 mm - - -
1788277531 20.56° C 80% 1014 hPa 0 mm - - -
1788276682 21.11° C 80% 1013.8 hPa 0 mm - - -
1788275737 21.11° C 80% 1013.7 hPa 0 mm - - -
1788274879 21.11° C 80% 1013.8 hPa 0 mm - - -
1788273946 20.56° C 86% 1013.7 hPa 0 mm - - -
1788273009 18.89° C 89% 1013.6 hPa 0 mm - - -
1788272167 18.89° C 91% 1013.5 hPa 0 mm - - -
1788271221 17.78° C 93% 1013.2 hPa 0 mm - - -
1788270376 16.67° C 92% 1012.9 hPa 0 mm - - -
1788269420 16.67° C 92% 1012.8 hPa 0 mm - - -

* Rain latest hour (hover to see other rain measurements)
** Current wind speed in m/s (hover to see current wind gust speed)